FW6934 Weather Reports


Display with metric or nautical units.
time (UTC)temp
F
wind
direction
speed
MPH
gust
MPH
rain 1hr
in
rain 24hr
in
rain mn
in
humidity
%
barometer
mb
20260903121559 54 209 2.0 10.0 0.01 0.41 0.02 89 997.0
20260903121052 54 163 2.0 10.0 0.00 0.40 0.02 89 996.9
20260903120600 54 273 1.0 10.0 0.00 0.40 0.01 89 997.0
20260903120030 54 184 2.0 8.0 0.00 0.40 0.01 89 997.0
20260903115539 54 143 2.0 8.0 0.00 0.40 0.01 89 997.0
20260903115045 54 150 2.0 11.0 0.00 0.40 0.01 89 996.9
20260903114522 54 213 2.0 7.0 0.00 0.40 0.01 89 997.0
20260903114020 54 169 2.0 8.0 0.00 0.40 0.01 89 997.0
20260903113527 54 186 1.0 10.0 0.00 0.40 0.01 89 997.0
20260903113058 54 123 3.0 13.0 0.00 0.40 0.01 89 997.1
20260903112502 54 218 3.0 12.0 0.00 0.40 0.01 89 997.1
20260903112010 54 159 2.0 10.0 0.00 0.40 0.01 89 997.1
20260903111550 54 167 4.0 10.0 0.00 0.40 0.01 89 997.0
20260903111057 54 143 2.0 13.0 0.00 0.40 0.01 89 996.9
20260903110558 54 161 4.0 13.0 0.00 0.40 0.01 89 996.9
20260903110030 54 132 1.0 7.0 0.00 0.40 0.01 89 996.9
20260903105536 54 194 4.0 7.0 0.00 0.40 0.01 89 997.0
20260903105039 54 180 2.0 7.0 0.00 0.40 0.01 89 997.1
20260903104508 54 144 0.0 10.0 0.00 0.40 0.01 89 997.0
20260903104028 54 173 3.0 10.0 0.00 0.40 0.01 89 997.1
20260903103521 54 170 2.0 14.0 0.01 0.40 0.01 89 997.1
20260903103058 54 131 4.0 14.0 0.01 0.40 0.01 89 997.2
20260903102515 54 136 3.0 12.0 0.01 0.40 0.01 89 997.0
20260903102010 54 213 3.0 13.0 0.01 0.40 0.01 89 997.1
20260903101551 54 174 4.0 13.0 0.01 0.40 0.01 89 997.1
20260903101057 54 207 0.0 14.0 0.01 0.40 0.01 89 997.1
20260903100607 54 196 2.0 9.0 0.01 0.40 0.01 89 997.0
20260903100039 54 219 2.0 9.0 0.01 0.40 0.01 89 996.9
20260903095533 54 190 1.0 5.0 0.01 0.40 0.01 89 997.0
20260903095044 54 252 1.0 7.0 0.01 0.40 0.01 89 996.9
20260903094515 55 159 2.0 7.0 0.01 0.40 0.01 89 996.9
20260903094026 55 98 0.0 9.0 0.01 0.40 0.01 89 997.0
20260903093534 55 228 2.0 9.0 0.00 0.39 0.00 89 997.0
20260903093102 54 108 2.0 8.0 0.00 0.39 0.00 89 997.1
20260903092557 54 211 2.0 8.0 0.00 0.39 0.00 89 997.0
20260903092003 55 175 1.0 7.0 0.00 0.39 0.00 89 997.0
20260903091552 55 211 1.0 9.0 0.00 0.39 0.00 89 997.1
20260903091043 55 227 2.0 11.0 0.00 0.39 0.00 89 997.0
20260903090550 55 205 3.0 19.0 0.00 0.39 0.00 89 997.1
20260903090027 55 168 2.0 18.0 0.00 0.39 0.00 89 997.2
20260903085527 55 165 3.0 11.0 0.00 0.39 0.00 89 997.2
20260903085019 55 173 2.0 11.0 0.00 0.39 0.00 89 997.2
20260903084602 55 175 1.0 4.0 0.00 0.39 0.00 89 997.2
20260903084018 55 213 1.0 7.0 0.00 0.39 0.00 89 997.2
20260903083509 55 132 1.0 9.0 0.00 0.39 0.00 89 997.3
20260903083050 55 238 2.0 9.0 0.00 0.39 0.00 89 997.3
20260903082551 55 160 2.0 8.0 0.00 0.39 0.00 89 997.3
20260903082054 55 206 2.0 9.0 0.00 0.39 0.00 89 997.3
20260903081534 55 167 2.0 10.0 0.00 0.39 0.00 89 997.3
20260903081036 55 137 2.0 6.0 0.00 0.39 0.00 89 997.2
20260903080542 55 148 2.0 6.0 0.00 0.39 0.00 89 997.3
20260903080003 55 192 1.0 4.0 0.00 0.39 0.00 89 997.4
20260903075511 55 179 0.0 7.0 0.00 0.39 0.00 89 997.5
20260903075029 55 246 2.0 7.0 0.00 0.39 0.00 89 997.5
20260903074553 55 175 2.0 8.0 0.00 0.39 0.00 89 997.6
20260903074003 55 188 1.0 8.0 0.00 0.39 0.00 89 997.6
20260903073512 55 160 1.0 7.0 0.00 0.39 0.00 89 997.4
20260903072537 55 184 0.0 6.0 0.00 0.39 0.00 89 997.4
20260903072045 55 167 1.0 7.0 0.00 0.39 0.00 89 997.4
20260903071520 55 200 3.0 8.0 0.00 0.39 0.00 89 997.4
20260903071025 55 267 1.0 4.0 0.00 0.39 0.00 89 997.3
20260903070527 55 153 1.0 7.0 0.00 0.39 0.00 89 997.3
20260903070100 55 224 2.0 7.0 0.00 0.39 0.39 89 997.2
20260903065600 55 200 0.0 6.0 0.00 0.39 0.39 89 997.2
20260903065004 55 55 1.0 4.0 0.00 0.39 0.39 89 997.2
20260903064540 55 215 1.0 5.0 0.00 0.39 0.39 89 997.3
20260903064047 55 224 1.0 5.0 0.00 0.39 0.39 89 997.4
20260903063550 55 203 1.0 9.0 0.00 0.39 0.39 89 997.3
20260903063028 55 146 2.0 7.0 0.00 0.39 0.39 89 997.3
20260903062534 55 228 2.0 9.0 0.00 0.39 0.39 89 997.3
20260903062040 55 209 0.0 9.0 0.01 0.39 0.39 89 997.3
20260903061512 55 184 0.0 6.0 0.01 0.39 0.39 89 997.4
20260903061024 55 177 2.0 7.0 0.01 0.39 0.39 89 997.5
20260903060528 55 160 1.0 8.0 0.01 0.39 0.39 89 997.5
20260903060120 55 252 0.0 8.0 0.01 0.39 0.39 89 997.4
20260903055501 55 214 1.0 5.0 0.01 0.39 0.39 89 997.5
20260903055012 55 164 2.0 9.0 0.01 0.39 0.39 89 997.5
20260903054546 56 203 1.0 9.0 0.01 0.39 0.39 89 997.5
20260903054054 56 279 0.0 4.0 0.01 0.39 0.39 89 997.4
20260903053559 56 207 1.0 4.0 0.01 0.39 0.39 89 997.4
20260903053038 56 235 0.0 8.0 0.01 0.39 0.39 89 997.4
20260903052541 56 181 1.0 8.0 0.01 0.39 0.39 89 997.4
20260903052048 56 174 2.0 8.0 0.00 0.38 0.38 89 997.4
20260903051517 56 205 1.0 6.0 0.00 0.38 0.38 89 997.4
20260903051024 56 190 0.0 4.0 0.00 0.38 0.38 89 997.4
20260903050529 56 168 2.0 4.0 0.00 0.38 0.38 89 997.4
20260903050001 56 175 0.0 4.0 0.00 0.38 0.38 89 997.3
20260903045513 56 207 0.0 4.0 0.00 0.38 0.38 89 997.3
20260903045020 56 176 0.0 2.0 0.00 0.38 0.38 89 997.3
20260903044552 56 175 0.0 4.0 0.00 0.38 0.38 89 997.3
20260903044103 56 174 0.0 6.0 0.00 0.38 0.38 89 997.2
20260903043549 56 173 0.0 6.0 0.00 0.38 0.38 89 997.3
20260903043016 56 236 0.0 5.0 0.00 0.38 0.38 89 997.2
20260903042525 56 151 0.0 5.0 0.00 0.38 0.38 89 997.1
20260903042032 56 167 0.0 6.0 0.00 0.38 0.38 89 997.0
20260903041559 56 170 2.0 6.0 0.00 0.38 0.38 88 997.0
20260903041007 56 258 1.0 3.0 0.00 0.38 0.38 88 997.0
20260903040513 56 259 0.0 7.0 0.00 0.38 0.38 88 996.9
20260903040036 56 251 1.0 7.0 0.00 0.38 0.38 88 997.0
20260903035541 56 211 0.0 3.0 0.00 0.38 0.38 88 996.9
20260903035049 56 190 0.0 3.0 0.00 0.38 0.38 88 996.9
20260903034502 56 190 0.0 2.0 0.00 0.38 0.38 88 996.6
20260903034007 56 190 0.0 2.0 0.00 0.38 0.38 88 996.6
20260903033523 56 190 0.0 0.0 0.00 0.38 0.38 88 996.5
20260903033053 57 189 0.0 0.0 0.00 0.38 0.38 87 996.4
20260903032504 57 189 0.0 2.0 0.00 0.38 0.38 88 996.3
20260903032013 57 189 0.0 3.0 0.00 0.38 0.38 87 996.3
20260903031549 57 189 0.0 6.0 0.00 0.38 0.38 87 996.2
20260903031055 57 183 0.0 6.0 0.00 0.38 0.38 87 996.2
20260903030603 57 205 0.0 3.0 0.00 0.38 0.38 87 996.1
20260903030046 57 205 0.0 6.0 0.00 0.38 0.38 87 996.1
20260903025541 57 175 1.0 6.0 0.00 0.38 0.38 87 996.0
20260903025051 58 174 1.0 5.0 0.00 0.38 0.38 87 996.0
20260903024529 58 162 0.0 3.0 0.00 0.38 0.38 87 995.9
20260903024036 58 172 0.0 6.0 0.00 0.38 0.38 87 995.7
20260903023541 58 172 2.0 6.0 0.00 0.38 0.38 87 995.7
20260903023008 58 202 0.0 3.0 0.00 0.38 0.38 86 995.8
20260903022524 58 202 1.0 4.0 0.00 0.38 0.38 87 995.7
20260903022035 59 200 1.0 4.0 0.00 0.38 0.38 87 995.6
20260903021502 59 150 0.0 2.0 0.00 0.38 0.38 87 995.5
20260903021007 59 150 0.0 7.0 0.00 0.38 0.38 87 995.6
20260903020515 59 150 0.0 7.0 0.00 0.38 0.38 87 995.6
20260903020051 59 162 1.0 7.0 0.00 0.38 0.38 86 995.6
20260903015557 59 170 1.0 6.0 0.00 0.38 0.38 87 995.5
20260903015001 59 202 0.0 2.0 0.00 0.38 0.38 87 995.4
20260903014545 60 196 0.0 2.0 0.00 0.38 0.38 87 995.4
20260903014043 60 196 0.0 2.0 0.00 0.38 0.38 87 995.3
20260903013551 60 196 0.0 1.0 0.00 0.38 0.38 87 995.4
20260903013028 60 196 0.0 3.0 0.00 0.38 0.38 86 995.3
20260903012531 60 196 0.0 4.0 0.00 0.38 0.38 86 995.3
20260903012040 60 215 0.0 3.0 0.00 0.38 0.38 87 995.2
20260903011518 60 228 0.0 3.0 0.00 0.38 0.38 87 995.2
20260903011024 60 228 0.0 4.0 0.00 0.38 0.38 87 995.2
20260903010530 60 227 1.0 4.0 0.00 0.38 0.38 87 995.2
20260903010046 60 160 1.0 5.0 0.00 0.38 0.38 87 995.1
20260903005553 60 189 0.0 8.0 0.00 0.38 0.38 87 995.2
20260903005103 60 178 2.0 8.0 0.00 0.38 0.38 87 995.2
20260903004538 60 182 1.0 5.0 0.00 0.38 0.38 87 995.1
20260903004041 60 180 1.0 7.0 0.00 0.38 0.38 87 995.1
20260903003551 60 166 0.0 7.0 0.00 0.38 0.38 87 995.0
20260903003025 60 275 2.0 6.0 0.00 0.38 0.38 87 995.0
20260903002531 59 175 0.0 4.0 0.00 0.38 0.38 87 994.9
20260903002038 59 183 1.0 5.0 0.00 0.38 0.38 87 994.9
20260903001504 59 155 1.0 5.0 0.00 0.38 0.38 88 994.9
20260903001012 59 175 2.0 5.0 0.00 0.38 0.38 88 994.8
20260903000524 59 149 0.0 3.0 0.00 0.38 0.38 88 994.8
20260903000059 59 146 1.0 4.0 0.00 0.38 0.38 88 994.8
20260902235602 59 209 0.0 8.0 0.01 0.38 0.38 88 994.8
20260902235008 59 201 1.0 8.0 0.01 0.38 0.38 88 994.8
20260902234543 59 154 1.0 10.0 0.01 0.38 0.38 88 994.8
20260902234049 59 160 3.0 10.0 0.01 0.38 0.38 89 994.8
20260902233555 59 113 1.0 4.0 0.01 0.38 0.38 89 994.7
20260902233047 59 111 2.0 5.0 0.01 0.38 0.38 89 994.6
20260902232543 59 165 2.0 5.0 0.04 0.38 0.38 89 994.7
20260902232049 59 189 2.0 5.0 0.07 0.38 0.38 89 994.7
20260902231527 59 117 0.0 5.0 0.08 0.38 0.38 89 994.8
20260902231039 59 177 2.0 5.0 0.08 0.38 0.38 89 994.7
20260902230548 59 215 1.0 3.0 0.08 0.38 0.38 89 994.7
20260902230010 59 200 0.0 5.0 0.07 0.37 0.38 89 994.7
20260902225525 58 200 0.0 6.0 0.07 0.37 0.37 89 994.4
20260902225029 58 194 1.0 6.0 0.07 0.37 0.37 89 994.3
20260902224605 58 212 0.0 7.0 0.07 0.37 0.37 89 994.3
20260902224000 58 201 1.0 4.0 0.07 0.37 0.37 89 994.3
20260902223503 58 168 1.0 4.0 0.07 0.37 0.37 89 994.3
20260902223037 58 223 1.0 7.0 0.07 0.37 0.37 89 994.3
20260902222545 58 261 2.0 8.0 0.03 0.33 0.34 89 994.2
20260902222050 58 24 4.0 12.0 0.01 0.31 0.31 89 994.0
20260902221524 58 209 4.0 12.0 0.00 0.30 0.30 89 993.8
20260902221029 58 160 4.0 10.0 0.00 0.30 0.30 89 993.7
20260902220536 58 189 2.0 9.0 0.00 0.30 0.30 89 993.7
20260902220025 58 319 1.0 10.0 0.00 0.30 0.30 89 993.7
20260902215510 58 223 2.0 17.0 0.00 0.30 0.30 89 993.6
20260902215031 58 200 6.0 17.0 0.01 0.30 0.30 89 993.6
20260902214607 58 161 3.0 20.0 0.01 0.30 0.30 89 993.6
20260902214055 58 296 4.0 20.0 0.01 0.30 0.30 89 993.6
20260902213603 58 193 1.0 17.0 0.01 0.30 0.30 89 993.5
20260902213034 58 151 6.0 18.0 0.01 0.30 0.30 89 993.6
20260902212546 58 355 2.0 14.0 0.01 0.30 0.30 89 993.6
20260902212045 58 75 4.0 14.0 0.01 0.30 0.30 89 993.5
20260902211521 57 277 1.0 11.0 0.01 0.30 0.30 89 993.6
20260902211027 57 134 3.0 10.0 0.01 0.30 0.30 89 993.6
20260902210533 57 327 3.0 10.0 0.01 0.30 0.30 89 993.5
20260902210045 57 150 2.0 15.0 0.01 0.30 0.30 89 993.5
20260902205550 57 355 1.0 15.0 0.01 0.30 0.30 89 993.6
20260902205056 57 169 1.0 8.0 0.00 0.28 0.28 89 993.5
20260902204529 57 255 4.0 9.0 0.00 0.28 0.28 89 993.5
20260902204038 57 360 1.0 9.0 0.01 0.28 0.28 89 993.4
20260902203548 57 184 3.0 9.0 0.01 0.28 0.28 89 993.5
20260902203003 57 316 2.0 8.0 0.01 0.28 0.28 89 993.5
20260902202510 57 196 1.0 9.0 0.02 0.28 0.28 89 993.4
20260902202023 57 286 0.0 8.0 0.03 0.28 0.28 89 993.4
20260902201552 57 225 2.0 8.0 0.04 0.28 0.28 89 993.3
20260902201056 57 219 1.0 8.0 0.05 0.28 0.28 89 993.1
20260902200502 57 319 2.0 10.0 0.06 0.28 0.28 89 993.2
20260902200035 57 74 4.0 10.0 0.07 0.28 0.28 89 993.1
20260902195541 57 63 3.0 7.0 0.09 0.28 0.28 89 993.2
20260902195050 57 153 2.0 11.0 0.10 0.28 0.28 89 993.1
20260902194525 57 19 3.0 11.0 0.12 0.28 0.28 89 993.1
20260902194013 57 294 2.0 9.0 0.12 0.28 0.28 89 993.2
20260902193520 57 111 1.0 11.0 0.12 0.28 0.28 88 993.2
20260902193058 57 97 0.0 13.0 0.13 0.28 0.28 88 993.3
20260902192603 57 74 1.0 13.0 0.13 0.27 0.27 88 993.3
20260902192004 57 355 1.0 5.0 0.12 0.26 0.26 89 993.5
20260902191544 57 57 2.0 5.0 0.12 0.25 0.25 88 993.5
20260902191046 57 258 1.0 5.0 0.12 0.24 0.24 88 993.6
20260902190550 57 183 1.0 5.0 0.11 0.23 0.23 88 993.9
20260902190022 57 342 0.0 5.0 0.10 0.22 0.22 88 994.0
20260902185530 57 56 1.0 5.0 0.09 0.20 0.20 88 994.1
20260902185026 57 209 2.0 8.0 0.08 0.19 0.19 88 994.2
20260902184604 57 325 1.0 8.0 0.07 0.17 0.18 88 994.1
20260902184018 57 236 1.0 4.0 0.07 0.16 0.16 88 994.0
20260902183503 57 223 1.0 2.0 0.07 0.16 0.16 88 993.9
20260902183041 57 245 1.0 4.0 0.07 0.15 0.15 87 993.9
20260902182546 57 123 1.0 5.0 0.07 0.14 0.14 87 993.8
20260902182054 57 50 0.0 7.0 0.07 0.14 0.14 87 994.0
20260902181519 57 156 3.0 7.0 0.08 0.13 0.13 87 994.1
20260902181024 57 5 1.0 4.0 0.09 0.12 0.12 87 994.2
20260902180532 57 214 1.0 4.0 0.09 0.12 0.12 87 994.3
20260902180055 57 150 0.0 4.0 0.10 0.12 0.12 87 994.5
20260902175553 57 182 1.0 8.0 0.09 0.11 0.11 87 994.3
20260902175105 57 142 1.0 8.0 0.10 0.11 0.11 87 994.4
20260902174548 57 165 1.0 8.0 0.09 0.10 0.10 86 994.5
20260902174044 57 161 3.0 8.0 0.08 0.09 0.09 86 994.6
20260902173552 58 159 1.0 8.0 0.09 0.09 0.09 86 994.7
20260902173049 58 159 1.0 6.0 0.08 0.08 0.08 85 994.5
20260902172528 58 195 1.0 6.0 0.07 0.07 0.07 85 994.6
20260902172036 58 209 3.0 6.0 0.07 0.07 0.07 85 994.6
20260902171557 58 209 1.0 4.0 0.05 0.05 0.05 84 994.5
20260902171056 59 192 1.0 7.0 0.03 0.03 0.03 84 994.5
20260902170556 59 187 1.0 7.0 0.03 0.03 0.03 84 994.4
20260902170031 59 238 1.0 2.0 0.02 0.02 0.02 83 994.4
20260902165535 59 272 0.0 2.0 0.02 0.02 0.02 83 994.4
20260902165039 59 272 0.0 3.0 0.01 0.01 0.01 83 994.3
20260902164504 59 152 1.0 3.0 0.01 0.01 0.01 82 994.4
20260902164012 60 211 0.0 5.0 0.01 0.01 0.01 82 994.3
20260902163520 60 211 0.0 5.0 0.00 0.00 0.00 82 994.3
20260902163051 60 195 1.0 6.0 0.00 0.00 0.00 82 994.2
20260902162603 60 254 0.0 6.0 0.00 0.00 0.00 81 994.3
20260902162009 60 188 0.0 5.0 0.00 0.00 0.00 81 994.3
20260902161543 60 255 0.0 5.0 0.00 0.00 0.00 82 994.2
20260902161048 60 190 1.0 3.0 0.00 0.00 0.00 81 994.3
20260902160555 60 360 0.0 3.0 0.00 0.00 0.00 82 994.2
20260902160009 60 278 0.0 2.0 0.00 0.00 0.00 82 994.3
20260902155512 60 278 0.0 2.0 0.00 0.00 0.00 82 994.3
20260902155019 59 278 0.0 3.0 0.00 0.00 0.00 82 994.3
20260902154558 59 278 0.0 2.0 0.00 0.00 0.00 82 994.4
20260902154102 59 315 0.0 2.0 0.00 0.00 0.00 83 994.3
20260902153506 59 312 0.0 2.0 0.00 0.00 0.00 83 994.5
20260902153044 59 273 1.0 3.0 0.00 0.00 0.00 83 994.5
20260902152550 59 273 0.0 3.0 0.00 0.00 0.00 83 994.6
20260902152052 59 192 0.0 1.0 0.00 0.00 0.00 83 994.7
20260902151528 59 192 0.0 5.0 0.00 0.00 0.00 82 994.7
20260902151032 59 192 0.0 5.0 0.00 0.00 0.00 82 994.8
20260902150532 59 211 1.0 4.0 0.00 0.00 0.00 82 995.0
20260902150100 58 303 1.0 4.0 0.00 0.00 0.00 82 994.9
20260902145517 58 263 1.0 3.0 0.00 0.00 0.00 82 994.9
20260902145003 58 273 0.0 1.0 0.00 0.00 0.00 82 995.0
20260902144540 58 273 0.0 1.0 0.00 0.00 0.00 82 994.9
20260902144048 58 273 0.0 1.0 0.00 0.00 0.00 82 994.9
20260902143550 58 273 0.0 1.0 0.00 0.00 0.00 82 994.9
20260902143020 58 273 0.0 1.0 0.00 0.00 0.00 82 995.0
20260902142528 58 268 0.0 0.0 0.00 0.00 0.00 82 995.0
20260902142036 58 268 0.0 0.0 0.00 0.00 0.00 82 995.1
20260902141559 58 268 0.0 0.0 0.00 0.00 0.00 82 995.1
20260902141054 58 268 0.0 0.0 0.00 0.00 0.00 81 995.1
20260902140603 58 268 0.0 0.0 0.00 0.00 0.00 81 995.2
20260902140028 58 268 0.0 0.0 0.00 0.00 0.00 81 995.2
20260902135533 58 268 0.0 0.0 0.00 0.00 0.00 81 995.3
20260902135037 58 268 0.0 0.0 0.00 0.00 0.00 81 995.2
20260902134503 58 268 0.0 0.0 0.00 0.00 0.00 81 995.4
20260902134006 58 268 0.0 0.0 0.00 0.00 0.00 81 995.4
20260902133514 58 268 0.0 0.0 0.00 0.00 0.00 80 995.5
20260902133056 58 268 0.0 0.0 0.00 0.00 0.00 80 995.5
20260902132552 58 268 0.0 0.0 0.00 0.00 0.00 80 995.6
20260902132101 58 269 0.0 0.0 0.00 0.00 0.00 80 995.7
20260902131549 58 269 0.0 0.0 0.00 0.00 0.00 80 995.8
20260902131040 58 269 0.0 0.0 0.00 0.00 0.00 80 995.8
20260902130546 58 273 0.0 2.0 0.00 0.00 0.00 80 995.9
20260902130021 58 180 0.0 2.0 0.00 0.00 0.00 80 996.2
20260902125531 58 182 0.0 2.0 0.00 0.00 0.00 80 996.1
20260902125034 58 178 0.0 2.0 0.00 0.00 0.00 80 996.4
20260902124612 58 175 0.0 2.0 0.00 0.00 0.00 80 996.4
20260902124004 58 220 0.0 4.0 0.00 0.00 0.00 80 996.4
20260902123507 58 220 1.0 4.0 0.00 0.00 0.00 80 996.6
20260902123123 58 304 1.0 3.0 0.00 0.00 0.00 80 996.5
20260902122554 58 273 1.0 3.0 0.00 0.00 0.00 80 996.7
20260902122055 58 188 0.0 3.0 0.00 0.00 0.00 80 996.6